Regional Weather Roundup
Issued by NWS

Home | Current Version | Previous Version | Graphics & Text | Print | Product List | Glossary On
Versions: 1 2 3 4 5 6 7 8 9 10 11 12 13 14 15 16 17 18 19 20 21 22 23 24 25 26 27 28 29 30 31 32 33 34 35 36 37 38 39 40 41 42 43 44 45 46 47 48 49 50
948
ASUS43 KTOP 102059
RWRKS

WEATHER ROUNDUP FOR KANSAS
NATIONAL WEATHER SERVICE GOODLAND KS
300 PM CST SAT DEC 10 2016

NOTE:  "FAIR" INDICATES FEW OR NO CLOUDS BELOW 12,000 FEET WITH NO
SIGNIFICANT WEATHER AND/OR OBSTRUCTIONS TO VISIBILITY.

KSZ001>006-013>018-027>032-041>047-102200-
NORTHWEST KANSAS

CITY           SKY/WX    TMP DP  RH WIND       PRES   REMARKS
GOODLAND       CLOUDY    36  25  64 SE14      29.77F WCI  27
HAYS           CLOUDY    39  24  55 S15       29.94F WCI  31
HILL CITY      CLOUDY    38  24  57 S16       29.90F WCI  29
RUSSELL        CLOUDY    40  24  53 S22G30    29.95F WCI  30
$$

KSZ061>065-074>080-084>089-102200-
SOUTHWEST KANSAS

CITY           SKY/WX    TMP DP  RH WIND       PRES   REMARKS
DODGE CITY     CLOUDY    43  27  53 S23       29.90F
ELKHART          N/A     59  32  36 SE18        N/A
GARDEN CITY    CLOUDY    42  26  53 S16       29.87F
GREAT BEND     CLOUDY    41  24  51 S20G26    29.96F
LIBERAL        CLOUDY    52  30  43 S15       29.86F
$$

KSZ066>073-081>083-090>101-102200-
SOUTHEAST KANSAS

CITY           SKY/WX    TMP DP  RH WIND       PRES   REMARKS
CHANUTE        CLOUDY    41  18  39 S16       30.17F
COFFEYVILLE    CLOUDY    42  21  43 S17       30.19F
HUTCHINSON     CLOUDY    44  24  45 S24G33    30.01F
MEDICINE LODGE   N/A     44  26  49 S20G28    29.98F
NEWTON         CLOUDY    43  23  45 S22       30.03F
PARSONS        CLOUDY    41  18  39 S13G22    30.18F
WICHITA INTL   PTSUNNY   45  23  42 S22G29    30.05F
WICHITA JABRA  SUNNY     43  22  43 S21G28    30.06F
WINFIELD       SUNNY     45  23  42 S20G28    30.11F
$$

KSZ007>012-019>026-033>040-048>060-102>105-102200-
NORTHEAST KANSAS

CITY           SKY/WX    TMP DP  RH WIND       PRES   REMARKS
CONCORDIA      CLOUDY    38  22  52 S13       30.02F WCI  30
EMPORIA        CLOUDY    39  20  46 SE18G25   30.10F WCI  30
LAWRENCE       CLOUDY    36  23  59 SE14      30.16F WCI  27
MANHATTAN      CLOUDY    38  21  50 S14       30.08F WCI  30
OLATHE IND     CLOUDY    35  20  54 SE12      30.18F WCI  27
OLATHE EXE     CLOUDY    34  23  64 SE9       30.18F
SALINA         CLOUDY    42  23  46 S21       30.04F
TOPEKA BILLARD CLOUDY    37  22  54 SE16      30.13F WCI  28
TOPEKA FORBES  CLOUDY    37  21  52 SE18      30.11F WCI  27
$$




USA.gov is the U.S. government's official web portal to all federal, state and local government web resources and services.